When you browse on this site, cookies collect data to enhance your experience and personalize the content and advertising you see.
Visit our Privacy Policy to learn more. By continuing to use the site, you agree to this use of cookies and data.
  • In Lithuania
  • List of Countries
  • For 7 days
  • Water Temperature
  • Satellite Maps
  • Weather Map
  • Weather Widgets
  • user-avatar
    Login

    Hourly Weather Arakaka

    Today, 20 November, Tuesday

    Time Temperature Precipitation Wind Pressure Humidity
    00:00 +22°C° 0 mm 0 mps 752 mmHg 99%
    01:00 +22°C° 0 mm 0 mps 752 mmHg 99%
    02:00 +22°C° 0 mm 0 mps 752 mmHg 99%
    03:00 +22°C° 0 mm 0 mps 752 mmHg 99%
    04:00 +22°C° 0 mm 0 mps 752 mmHg 99%
    05:00 +22°C° 0 mm 0 mps 752 mmHg 99%
    06:00 +23°C° 0 mm 0 mps 753 mmHg 95%
    07:00 +24°C° 0 mm 0 mps 753 mmHg 92%
    08:00 +26°C° 0 mm 0 mps 753 mmHg 86%
    09:00 +30°C° 0.2 mm 1 mps 753 mmHg 78%
    10:00 +31°C° 0.2 mm 1 mps 753 mmHg 69%
    11:00 +33°C° 0.2 mm 1 mps 753 mmHg 60%
    12:00 +32°C° 0.8 mm 1 mps 752 mmHg 68%
    13:00 +31°C° 0.8 mm 2 mps 752 mmHg 75%
    14:00 +30°C° 0.8 mm 2 mps 751 mmHg 82%
    15:00 +30°C° 0.9 mm 2 mps 751 mmHg 86%
    16:00 +29°C° 0.9 mm 1 mps 751 mmHg 89%
    17:00 +28°C° 0.9 mm 1 mps 751 mmHg 93%
    18:00 +27°C° 0.1 mm 1 mps 751 mmHg 95%
    19:00 +26°C° 0.1 mm 1 mps 752 mmHg 97%
    20:00 +25°C° 0.1 mm 1 mps 753 mmHg 98%
    21:00 +25°C° 0.1 mm 1 mps 753 mmHg 98%
    22:00 +23°C° 0.1 mm 0 mps 753 mmHg 99%
    23:00 +23°C° 0.1 mm 0 mps 753 mmHg 99%

    Tomorrow, 21 November, Wednesday

    Time Temperature Precipitation Wind Pressure Humidity
    00:00 +23°C° 0.1 mm 0 mps 753 mmHg 99%
    01:00 +22°C° 0.1 mm 0 mps 753 mmHg 99%
    02:00 +22°C° 0.1 mm 0 mps 752 mmHg 99%
    03:00 +22°C° 0 mm 0 mps 752 mmHg 99%
    04:00 +22°C° 0 mm 0 mps 752 mmHg 99%
    05:00 +22°C° 0 mm 0 mps 752 mmHg 99%
    06:00 +23°C° 0 mm 0 mps 753 mmHg 97%
    07:00 +24°C° 0 mm 0 mps 753 mmHg 94%
    08:00 +25°C° 0 mm 0 mps 754 mmHg 92%
    09:00 +28°C° 0.5 mm 1 mps 754 mmHg 87%
    10:00 +29°C° 0.5 mm 1 mps 754 mmHg 82%
    11:00 +30°C° 0.5 mm 1 mps 754 mmHg 77%
    12:00 +30°C° 1.1 mm 1 mps 753 mmHg 82%
    13:00 +29°C° 1.1 mm 1 mps 752 mmHg 86%
    14:00 +29°C° 1.1 mm 1 mps 751 mmHg 91%
    15:00 +28°C° 0.6 mm 1 mps 751 mmHg 92%
    16:00 +28°C° 0.6 mm 1 mps 751 mmHg 94%
    17:00 +27°C° 0.6 mm 1 mps 751 mmHg 95%
    18:00 +26°C° 0.1 mm 1 mps 751 mmHg 96%
    19:00 +26°C° 0.1 mm 1 mps 752 mmHg 98%
    20:00 +25°C° 0.1 mm 1 mps 753 mmHg 99%
    21:00 +23°C° 0.1 mm 0 mps 753 mmHg 99%
    22:00 +23°C° 0.1 mm 0 mps 753 mmHg 99%
    23:00 +22°C° 0.1 mm 0 mps 753 mmHg 99%

    Day after tomorrow, 22 November, Thursday

    Time Temperature Precipitation Wind Pressure Humidity
    00:00 +22°C° 0 mm 0 mps 752 mmHg 99%
    01:00 +22°C° 0 mm 0 mps 752 mmHg 99%
    02:00 +22°C° 0 mm 0 mps 752 mmHg 99%
    03:00 +22°C° 0 mm 0 mps 752 mmHg 99%
    04:00 +22°C° 0 mm 0 mps 752 mmHg 99%
    05:00 +22°C° 0 mm 0 mps 752 mmHg 99%
    06:00 +23°C° 0 mm 0 mps 752 mmHg 96%
    07:00 +24°C° 0 mm 0 mps 753 mmHg 94%
    08:00 +25°C° 0 mm 0 mps 753 mmHg 91%
    09:00 +29°C° 0.1 mm 1 mps 753 mmHg 79%
    10:00 +31°C° 0.1 mm 1 mps 753 mmHg 67%
    11:00 +34°C° 0.1 mm 2 mps 753 mmHg 55%
    12:00 +34°C° 0.2 mm 2 mps 752 mmHg 55%
    13:00 +34°C° 0.2 mm 2 mps 751 mmHg 55%
    14:00 +35°C° 0.2 mm 2 mps 750 mmHg 55%
    15:00 +32°C° 0.4 mm 2 mps 750 mmHg 65%
    16:00 +30°C° 0.4 mm 1 mps 750 mmHg 75%
    17:00 +28°C° 0.4 mm 1 mps 750 mmHg 84%
    18:00 +27°C° 0.2 mm 1 mps 750 mmHg 88%
    19:00 +26°C° 0.2 mm 1 mps 751 mmHg 92%
    20:00 +25°C° 0.2 mm 1 mps 752 mmHg 95%
    21:00 +25°C° 0 mm 1 mps 752 mmHg 96%
    22:00 +22°C° 0 mm 0 mps 752 mmHg 97%
    23:00 +22°C° 0 mm 0 mps 752 mmHg 99%

    23 November, Friday

    Time Temperature Precipitation Wind Pressure Humidity
    00:00 +22°C° 0 mm 0 mps 752 mmHg 99%
    01:00 +22°C° 0 mm 0 mps 751 mmHg 99%
    02:00 +22°C° 0 mm 0 mps 751 mmHg 99%
    03:00 +22°C° 0 mm 0 mps 751 mmHg 99%
    04:00 +22°C° 0 mm 0 mps 751 mmHg 99%
    05:00 +22°C° 0 mm 0 mps 751 mmHg 99%
    06:00 +23°C° 0 mm 0 mps 752 mmHg 95%
    07:00 +24°C° 0 mm 0 mps 752 mmHg 91%
    08:00 +25°C° 0 mm 0 mps 753 mmHg 88%
    09:00 +29°C° 0.1 mm 1 mps 753 mmHg 79%
    10:00 +31°C° 0.1 mm 1 mps 752 mmHg 70%
    11:00 +32°C° 0.1 mm 1 mps 752 mmHg 62%
    12:00 +32°C° 0.8 mm 1 mps 751 mmHg 67%
    13:00 +31°C° 0.8 mm 2 mps 751 mmHg 72%
    14:00 +31°C° 0.8 mm 2 mps 750 mmHg 77%
    15:00 +30°C° 0.8 mm 1 mps 750 mmHg 82%
    16:00 +29°C° 0.8 mm 1 mps 749 mmHg 87%
    17:00 +28°C° 0.8 mm 1 mps 749 mmHg 91%
    18:00 +27°C° 0 mm 1 mps 750 mmHg 94%
    19:00 +26°C° 0 mm 1 mps 751 mmHg 96%
    20:00 +25°C° 0 mm 1 mps 751 mmHg 98%
    21:00 +25°C° 0 mm 1 mps 751 mmHg 98%
    22:00 +23°C° 0 mm 0 mps 752 mmHg 99%
    23:00 +23°C° 0 mm 0 mps 752 mmHg 99%

    24 November, Saturday

    Time Temperature Precipitation Wind Pressure Humidity
    00:00 +23°C° 0 mm 0 mps 752 mmHg 99%
    01:00 +23°C° 0 mm 0 mps 751 mmHg 99%
    02:00 +22°C° 0 mm 0 mps 751 mmHg 99%
    03:00 +22°C° 0 mm 0 mps 751 mmHg 99%
    04:00 +22°C° 0 mm 0 mps 751 mmHg 99%
    05:00 +22°C° 0 mm 0 mps 751 mmHg 99%
    06:00 +23°C° 0 mm 0 mps 752 mmHg 96%
    07:00 +24°C° 0 mm 0 mps 752 mmHg 94%
    08:00 +25°C° 0 mm 0 mps 753 mmHg 91%
    09:00 +29°C° 0.2 mm 1 mps 753 mmHg 83%
    10:00 +30°C° 0.2 mm 1 mps 753 mmHg 76%
    11:00 +32°C° 0.2 mm 1 mps 752 mmHg 68%
    12:00 +32°C° 0.9 mm 1 mps 752 mmHg 70%
    13:00 +32°C° 0.9 mm 1 mps 751 mmHg 73%
    14:00 +31°C° 0.9 mm 1 mps 750 mmHg 75%
    15:00 +31°C° 0.4 mm 1 mps 750 mmHg 78%
    16:00 +30°C° 0.4 mm 1 mps 750 mmHg 81%
    17:00 +29°C° 0.4 mm 1 mps 750 mmHg 84%
    18:00 +28°C° 0 mm 1 mps 750 mmHg 88%
    19:00 +27°C° 0 mm 1 mps 751 mmHg 93%
    20:00 +26°C° 0 mm 1 mps 752 mmHg 97%
    21:00 +26°C° 0 mm 1 mps 752 mmHg 98%
    22:00 +25°C° 0 mm 1 mps 752 mmHg 98%
    23:00 +23°C° 0 mm 0 mps 752 mmHg 99%

    25 November, Sunday

    Time Temperature Precipitation Wind Pressure Humidity
    00:00 +23°C° 0 mm 0 mps 752 mmHg 99%
    01:00 +23°C° 0 mm 0 mps 751 mmHg 99%
    02:00 +23°C° 0 mm 0 mps 751 mmHg 99%
    03:00 +23°C° 0.1 mm 0 mps 751 mmHg 99%
    04:00 +23°C° 0.1 mm 0 mps 751 mmHg 99%
    05:00 +23°C° 0.1 mm 0 mps 751 mmHg 99%
    06:00 +23°C° 0 mm 0 mps 752 mmHg 96%
    07:00 +24°C° 0 mm 0 mps 752 mmHg 93%
    08:00 +25°C° 0 mm 0 mps 753 mmHg 91%
    09:00 +29°C° 0.5 mm 1 mps 753 mmHg 85%
    10:00 +30°C° 0.5 mm 1 mps 753 mmHg 80%
    11:00 +31°C° 0.5 mm 1 mps 753 mmHg 74%
    12:00 +31°C° 0.9 mm 1 mps 752 mmHg 79%
    13:00 +30°C° 0.9 mm 1 mps 751 mmHg 85%
    14:00 +29°C° 0.9 mm 1 mps 750 mmHg 90%
    15:00 +29°C° 0.6 mm 1 mps 750 mmHg 92%
    16:00 +28°C° 0.6 mm 1 mps 750 mmHg 93%
    17:00 +28°C° 0.6 mm 1 mps 750 mmHg 95%
    18:00 +27°C° 0.3 mm 1 mps 751 mmHg 96%
    19:00 +26°C° 0.3 mm 1 mps 751 mmHg 98%
    20:00 +25°C° 0.3 mm 1 mps 752 mmHg 99%
    21:00 +23°C° 0.1 mm 0 mps 752 mmHg 99%
    22:00 +23°C° 0.1 mm 0 mps 752 mmHg 99%
    23:00 +23°C° 0.1 mm 0 mps 752 mmHg 99%
    Show more